sat.trackr.live / text

‹ back to catalog

STARLINK-31796

NORAD 59646 · 2024-082R

PAYLOAD ACTIVE UNKNOWN

§ Identity

Operator
Country
US
Launch date
2024-05-03
Launch site
AFETR
Launch vehicle
Mass (kg)
RCS (m²)

Purposes: comms

External: N2YO · Heavens-Above · Gunter

§ Orbital elements

Epoch: 2026-09-21T00:09:29.506464Z

Period
94.27 min
Inclination
43.0018°
Eccentricity
0.0000929
Mean motion
15.27574365 rev/d
Perigee alt
482.4 km
Apogee alt
483.7 km
Semi-major
6,861.2 km
B*
2.2041e-6
RAAN
116.7142°
Arg perigee
301.1801°
Mean anomaly
58.8960°
Rev number
13,484

§ Raw data

STARLINK-317961 59646U 24082R   26264.00659151 -.00000201  00000+0  22041-5 0  99902 59646  43.0018 116.7142 0000929 301.1801  58.8960 15.27574365134845

JSON: /api/v1/satellites/59646 · /tle

For live sub-satellite position, see the globe view (requires WebGL).

§ Visibility from observer

Set your observer location to see the next 7 days of passes ≥ 10°. The values pass through the URL so the page stays shareable.

No JS? Fill the form by hand. The geolocation button needs JavaScript.